Helicity
105 81 53 88 171 165 156 158 162 166 168 89 64 42 48 216 140 101 67 56 72 59 32 22 34 24 14 16 24 29 53 61 65 57 34 24 18 9 8 9 7 45 28 21 22 17 11 13 34
107 64 83 97 182 178 165 182 223 145 87 74 50 78 131 174 150 80 88 65 81 78 49 30 41 28 27 21 15 16 22 55 49 28 14 15 6 4 19 22 52 53 32 26 21 11 7 8 16
95 70 108 139 147 146 187 162 154 114 92 110 112 145 109 134 168 70 28 54 73 85 80 46 52 47 29 22 20 11 26 26 28 20 17 11 14 20 47 48 62 45 32 26 17 7 2 -3 0
111 119 146 169 185 96 175 272 153 121 110 122 119 165 158 114 88 46 40 72 99 99 83 66 60 57 43 30 36 36 40 3 -21 6 10 12 28 43 49 65 53 31 21 21 13 4 -3 -9 -8
156 81 201 193 140 32 80 208 94 87 84 113 129 190 225 184 118 95 84 67 90 104 81 60 75 69 50 42 36 58 42 33 -9 -24 -4 12 32 45 41 40 33 25 22 18 13 3 -6 -12 -16
241 144 214 184 101 -16 20 87 79 57 88 100 131 172 205 168 151 58 110 54 80 96 107 95 89 58 48 62 45 63 63 57 31 -6 -27 -6 21 23 28 31 33 28 26 21 15 6 -3 -10 -9
253 234 102 167 171 15 63 80 126 69 90 140 69 155 139 148 204 106 125 110 92 96 100 104 85 66 74 76 71 67 70 78 61 30 13 -3 -9 3 10 18 26 28 28 24 17 9 2 -5 -9
413 229 116 97 162 114 136 72 44 85 140 126 105 116 121 98 129 132 153 122 112 104 99 86 105 125 96 80 73 76 80 78 60 55 48 40 20 7 16 11 11 21 25 24 22 17 10 4 2
403 253 124 101 169 220 152 155 158 162 136 169 158 113 114 128 115 156 167 134 111 65 51 66 96 112 102 93 95 91 83 81 65 65 62 46 26 28 27 18 23 22 21 27 24 23 20 18 13
380 214 118 161 130 125 217 164 224 198 213 200 195 208 159 149 143 147 127 100 65 36 9 53 84 82 86 77 81 73 77 88 92 87 68 64 51 33 36 34 32 24 26 30 23 28 32 39 30
244 133 133 102 72 110 55 117 187 227 199 102 81 94 89 121 128 120 118 88 32 8 29 18 29 37 55 61 69 62 70 93 104 94 75 64 65 55 55 47 40 49 53 53 46 39 39 45 52
208 157 130 164 117 107 -69 186 197 213 231 88 58 65 94 49 79 73 96 122 99 61 40 10 -5 26 22 52 63 58 83 99 113 96 73 83 76 72 62 55 61 72 79 84 83 75 68 58 52
207 62 97 119 94 52 68 -98 131 188 285 118 152 144 100 83 55 59 71 86 98 88 84 80 56 57 38 49 68 71 75 90 87 99 75 92 84 83 84 68 78 79 100 98 93 86 83 80 74
140 180 174 135 63 57 96 48 113 153 228 38 106 143 113 68 48 58 61 63 80 75 79 99 110 108 120 79 80 85 86 75 94 80 63 64 91 100 108 98 87 81 103 101 99 97 93 83 99
131 171 195 101 73 75 34 25 69 96 212 98 80 93 104 78 60 45 24 50 62 71 76 97 109 133 166 127 103 111 97 98 96 79 84 78 94 120 134 141 132 112 114 115 105 96 110 102 104
160 188 167 150 126 131 34 19 5 -23 69 71 67 99 95 106 77 51 33 36 51 78 61 63 104 139 161 175 162 144 138 131 96 88 87 106 98 133 156 158 175 163 160 152 153 129 124 125 134
271 207 161 152 86 145 141 92 61 50 -10 10 44 68 80 88 83 66 56 69 72 69 87 98 108 108 111 119 139 142 130 147 127 122 113 83 114 149 168 171 185 217 205 203 199 177 194 191 175
199 181 132 174 136 156 122 99 130 83 53 36 70 74 85 87 83 95 105 139 169 171 160 140 113 109 115 132 124 112 117 98 122 141 138 132 125 133 158 182 189 230 237 219 240 218 238 235 230
206 257 244 204 129 146 68 55 53 69 123 86 65 89 90 79 104 126 185 229 241 250 269 280 240 219 164 167 152 132 103 101 105 134 131 164 169 168 192 187 183 230 237 232 237 251 237 236 265
133 156 149 150 118 99 94 55 81 61 56 98 85 85 71 94 109 158 200 226 235 231 220 224 232 234 220 201 187 199 182 141 117 106 123 147 152 162 194 202 216 245 228 245 250 286 285 285 332
170 139 161 154 163 166 105 75 71 62 99 90 93 100 84 89 107 145 172 180 187 201 196 193 196 188 179 191 219 231 224 214 204 171 130 108 125 137 163 173 194 196 223 254 300 301 317 245 327
157 147 159 151 193 144 140 85 80 76 79 97 29 84 100 129 157 167 167 176 166 156 153 166 183 199 212 200 191 183 179 183 185 184 172 145 125 125 137 145 163 172 208 232 263 285 287 316 290
132 96 139 188 226 187 171 106 -6 110 89 63 86 136 134 158 202 199 163 145 154 142 136 150 182 217 218 205 182 161 161 140 131 132 146 151 147 124 117 131 123 162 193 211 217 264 292 318 267
96 183 278 233 203 147 152 128 -54 72 72 92 153 184 184 184 189 186 191 158 151 153 165 181 194 197 186 173 169 158 150 147 145 143 141 140 117 123 149 126 124 131 158 189 177 185 225 245 264
134 232 231 202 198 92 113 141 68 67 59 72 138 208 227 215 196 199 187 172 163 168 176 164 160 163 159 146 139 136 135 125 123 127 132 148 145 149 189 180 136 124 133 133 147 153 164 196 206
151 187 196 136 148 142 177 115 98 28 28 75 173 232 221 184 167 143 146 155 156 146 142 129 124 127 124 117 118 122 133 126 131 133 134 143 155 165 190 208 212 195 167 129 109 112 128 141 155
133 152 196 166 159 130 109 153 110 65 65 140 163 190 153 153 154 136 140 142 139 136 124 101 103 107 109 105 108 125 141 152 144 149 135 120 128 136 145 156 171 190 202 180 149 144 150 130 118
161 199 218 256 139 106 77 94 82 77 99 150 196 160 138 119 131 139 136 128 132 116 107 113 102 94 96 108 121 123 146 154 152 127 130 123 117 120 123 127 131 152 175 191 193 179 184 188 167
204 209 234 242 224 145 69 24 22 38 97 169 174 131 127 109 119 129 122 108 99 105 109 106 108 106 110 114 115 129 152 157 152 132 99 100 101 116 130 135 140 152 165 169 167 172 176 175 179
177 199 230 238 225 208 92 20 24 43 94 167 175 153 119 103 113 104 105 102 93 92 81 76 88 101 110 107 108 120 133 139 138 121 123 109 112 129 138 129 128 144 152 150 140 127 138 155 169
Wind_Speed
44 41 34 34 46 47 57 50 44 40 39 31 33 23 18 30 38 44 14 7 20 19 18 21 24 25 28 30 34 38 40 40 40 38 38 38 37 37 37 37 37 39 40 41 40 39 38 36 34
41 36 33 39 53 59 55 47 47 44 32 23 21 26 30 33 26 12 4 13 23 21 18 22 24 24 27 31 34 36 39 39 38 37 37 37 37 37 36 36 37 37 38 40 40 39 39 39 37
42 33 42 49 56 59 47 41 44 36 35 34 32 29 30 31 22 8 5 16 17 18 15 20 22 22 24 28 31 33 35 36 37 36 37 37 37 38 38 37 36 36 37 39 39 39 39 38 37
41 39 41 61 66 57 43 42 42 40 36 33 31 34 32 36 22 13 12 14 14 17 15 19 19 18 21 23 25 28 29 32 35 37 36 36 36 37 37 35 35 36 37 38 38 38 39 38 37
45 41 58 68 72 56 51 50 46 44 38 34 33 38 37 33 23 8 10 12 15 12 13 15 13 15 17 17 21 24 25 29 31 34 34 34 33 33 33 33 34 34 35 36 36 36 36 36 34
67 50 72 77 74 59 55 48 50 44 37 32 29 29 33 31 16 7 6 8 11 13 10 9 9 14 17 15 17 19 20 23 26 30 31 31 31 30 30 31 31 32 32 33 33 33 33 32 32
77 84 102 79 73 66 55 46 49 42 36 34 23 31 28 22 22 6 6 5 5 8 7 5 6 9 12 12 13 13 15 18 21 25 26 27 28 27 27 28 28 29 29 30 30 30 30 30 29
65 71 93 91 79 73 56 49 44 45 39 30 31 37 30 22 18 7 5 5 4 4 3 5 6 6 5 5 7 7 10 14 16 20 22 23 25 25 25 25 25 26 26 26 27 27 27 27 27
57 78 97 102 89 73 51 50 43 43 37 32 37 32 22 12 9 8 7 5 3 2 2 4 5 3 2 3 6 6 7 9 12 15 18 19 20 21 22 22 22 22 22 23 24 24 24 25 25
69 94 99 75 85 67 61 53 52 43 49 34 28 22 19 17 13 13 13 10 7 4 2 2 3 2 1 5 6 7 7 6 7 9 12 15 14 15 16 16 18 17 18 19 21 22 22 24 25
73 102 80 74 83 66 73 65 55 52 51 42 34 27 27 26 20 21 17 17 11 6 7 4 1 2 2 8 5 5 6 6 5 5 7 10 11 10 12 12 12 13 12 15 18 21 22 22 25
77 81 71 54 57 66 86 71 68 58 58 55 37 31 31 30 29 28 27 23 18 16 13 9 9 6 5 8 5 4 6 5 4 1 2 6 9 7 7 7 7 10 11 13 15 17 20 22 24
72 71 66 59 56 61 70 73 72 73 67 56 36 37 38 36 33 33 33 29 27 21 19 17 12 12 9 9 8 6 6 5 3 3 4 5 5 3 4 5 6 8 13 13 15 19 22 21 21
65 54 56 56 56 51 57 71 57 73 64 44 31 37 38 41 39 35 34 37 36 35 30 23 20 19 14 11 10 8 8 7 7 6 5 4 4 5 6 8 9 11 14 15 14 16 18 21 23
52 68 55 67 70 63 62 62 68 91 60 51 42 38 37 38 38 41 38 38 36 39 37 34 30 26 23 19 16 16 12 14 12 9 6 6 6 8 10 10 11 13 14 16 17 19 23 26 30
54 65 75 72 65 67 63 83 76 68 68 59 51 49 47 48 49 46 41 40 38 36 37 39 36 34 30 28 23 22 21 18 14 15 15 10 11 12 14 16 17 18 18 19 21 23 27 28 29
61 75 83 72 74 68 76 71 68 60 71 72 62 58 55 55 56 58 54 45 44 39 41 39 35 35 36 34 33 30 27 25 25 25 22 21 19 17 19 22 24 22 25 25 26 29 31 31 32
73 76 78 79 77 75 82 80 58 68 69 79 76 65 61 60 61 62 57 44 36 34 35 38 38 40 40 42 43 42 39 37 35 29 29 31 31 29 30 30 28 28 30 31 33 34 36 40 39
42 55 70 65 54 76 92 83 77 69 69 72 74 64 62 60 55 46 40 37 35 35 36 37 36 40 39 40 43 45 40 39 36 35 33 34 37 41 39 38 39 36 36 36 36 38 39 40 44
30 48 60 57 50 61 79 97 75 81 77 74 68 67 61 54 47 41 39 39 41 41 39 39 41 46 47 44 44 44 45 45 44 46 46 44 44 45 46 45 44 45 46 45 43 42 47 46 42
45 46 49 53 49 52 62 89 84 76 77 74 72 67 60 54 48 44 42 41 42 43 44 46 49 49 49 50 50 49 48 48 49 49 50 48 46 46 47 48 51 51 47 48 48 48 49 53 52
51 40 39 45 49 74 52 87 81 76 81 84 83 72 66 53 48 45 45 44 44 45 44 46 50 53 54 51 52 54 59 62 56 58 58 60 56 56 53 51 49 47 45 46 48 48 48 51 55
44 37 37 36 46 52 59 78 79 60 77 79 75 68 59 56 44 42 45 45 44 45 47 48 48 47 48 47 48 50 54 55 59 61 64 64 64 61 58 52 50 47 46 47 47 47 46 48 52
30 28 28 33 43 76 65 71 87 72 75 70 67 66 54 46 38 39 41 39 41 43 45 45 45 46 46 46 47 50 54 58 58 56 55 59 59 57 57 56 49 48 49 47 46 44 43 43 48
28 19 43 54 65 82 52 69 92 56 62 61 57 49 47 42 41 39 38 39 41 41 42 43 44 46 47 48 51 54 55 54 55 54 55 57 57 55 58 56 53 48 45 46 44 45 44 44 45
23 30 39 59 68 66 49 77 80 64 71 65 44 36 38 39 39 35 35 35 37 38 40 42 43 46 49 52 54 54 54 55 54 53 51 53 55 56 58 57 55 53 50 47 45 46 47 44 45
34 39 36 41 43 50 53 65 73 62 62 52 38 33 37 39 36 34 33 33 33 37 42 44 46 47 51 53 54 53 53 53 50 49 49 52 53 52 52 53 53 52 52 51 48 48 48 49 49
39 39 45 45 50 59 56 66 71 56 55 46 44 41 35 33 31 30 31 33 33 35 39 43 46 49 51 52 51 51 50 45 44 45 50 49 48 50 50 49 49 50 50 50 48 48 48 49 49
39 39 38 44 43 53 61 61 51 66 48 40 41 36 34 33 31 31 30 32 34 36 39 42 45 48 50 51 49 47 46 43 43 45 44 44 45 47 47 47 47 48 49 48 46 44 46 46 46
47 35 16 24 42 49 52 61 48 54 46 37 34 29 30 31 32 35 35 35 39 41 43 45 47 49 50 47 44 42 42 42 42 43 44 43 44 44 45 45 44 45 46 46 44 43 45 46 47
Wind_Direction
262 266 268 262 247 250 244 247 253 248 245 257 265 266 276 264 246 249 306 69 99 107 102 97 94 86 81 74 72 74 74 73 66 54 46 45 46 52 58 66 65 58 51 46 46 49 49 50 52
260 262 262 253 244 239 243 248 249 249 247 252 267 267 271 265 283 297 331 103 105 108 104 102 99 92 86 82 80 74 73 67 56 46 41 44 46 49 61 67 68 58 50 47 49 51 51 52 54
255 262 248 244 241 236 241 255 251 251 253 254 261 271 268 266 281 302 64 111 102 108 103 103 102 94 89 85 81 76 71 60 47 41 44 49 54 50 59 66 61 55 52 51 54 55 53 52 54
253 255 253 240 237 238 244 260 254 251 254 262 261 260 269 269 268 290 107 104 110 116 109 107 102 96 92 85 79 74 65 54 44 45 51 56 59 58 57 56 57 57 56 57 60 58 56 54 52
256 254 244 240 238 240 254 262 257 253 256 260 261 256 261 270 271 131 120 106 110 120 117 114 104 100 95 83 83 78 66 55 48 46 52 58 61 58 60 60 61 60 59 60 62 59 55 51 46
241 246 238 237 238 246 254 265 262 254 256 260 261 256 264 265 259 189 171 131 109 121 122 107 102 109 107 88 84 78 62 50 51 51 52 56 59 61 63 63 63 62 60 61 61 58 53 50 46
233 233 234 239 241 243 248 272 260 252 254 260 254 256 262 257 262 203 173 187 134 122 127 116 115 112 105 91 89 77 60 54 53 53 55 53 50 55 63 65 64 64 63 61 57 53 49 46 42
233 234 234 236 238 238 251 264 267 256 253 265 258 255 250 251 263 209 190 158 160 144 130 133 128 116 81 48 83 57 58 57 58 59 58 55 55 58 60 57 57 61 61 54 52 48 45 41 37
230 235 234 231 235 234 252 256 265 273 254 262 264 256 243 234 246 198 202 218 197 248 100 126 149 130 61 2 349 4 39 57 60 60 62 62 61 59 55 56 53 54 52 47 46 41 36 32 29
231 231 232 237 233 234 248 256 265 266 258 256 260 256 235 242 230 222 225 223 226 242 258 111 158 192 254 307 320 344 4 34 48 45 55 54 59 57 53 51 47 45 46 40 31 27 24 18 13
230 231 238 241 238 244 243 252 269 266 256 249 246 240 244 245 244 243 243 248 244 246 274 281 189 195 257 293 303 324 342 353 10 38 55 44 46 42 29 34 36 33 35 18 8 4 3 3 360
232 237 236 242 244 242 238 252 258 265 267 256 250 242 247 247 246 247 251 255 263 267 272 272 279 282 288 308 301 304 312 315 320 341 73 20 11 18 21 22 28 10 358 349 347 346 347 344 343
235 236 239 240 243 243 239 246 252 254 260 264 248 245 248 251 253 256 255 261 266 271 278 277 263 278 279 299 315 324 327 316 312 285 286 320 343 355 349 337 342 342 335 326 324 326 329 329 330
237 239 236 233 235 237 238 243 257 248 256 257 247 244 249 253 255 259 262 262 265 268 272 279 280 278 276 276 292 305 315 313 316 310 275 252 292 304 295 300 296 311 318 318 315 314 317 321 321
244 233 240 232 235 240 234 237 248 231 254 253 248 249 252 256 260 259 262 266 268 270 272 270 275 279 281 280 285 299 297 301 296 295 281 263 277 290 304 296 287 293 305 308 308 307 312 311 313
239 232 233 235 233 234 233 238 238 241 243 251 252 253 256 259 262 265 267 268 271 272 274 277 277 276 281 285 286 290 298 302 285 285 294 271 277 288 295 299 293 294 298 300 304 304 307 305 305
234 228 231 235 234 237 236 245 245 245 246 249 253 254 257 260 262 264 266 270 271 272 276 279 281 283 281 282 286 288 290 293 296 300 291 291 291 286 290 294 298 294 298 296 296 300 303 303 301
228 231 234 236 236 236 237 243 251 248 253 248 252 257 259 262 265 266 266 268 275 280 284 283 282 283 286 286 286 289 293 295 292 289 294 296 295 293 292 295 295 296 295 295 295 293 297 302 301
234 237 235 240 247 240 239 245 251 254 254 255 252 256 260 264 269 272 269 268 273 282 286 286 288 291 288 287 287 289 288 292 293 293 287 288 293 298 294 293 295 293 292 290 290 293 291 291 302
234 236 240 247 252 247 247 244 257 252 252 253 257 255 259 263 266 267 268 269 273 280 287 288 288 289 291 294 293 292 293 293 293 295 295 296 296 296 297 297 293 291 291 291 291 291 295 293 293
240 243 244 248 255 259 258 251 254 257 256 257 258 260 261 263 263 265 268 272 276 281 286 289 291 294 295 293 292 294 296 298 298 298 297 296 296 296 296 297 299 298 293 288 286 288 288 292 295
238 248 253 256 253 248 259 251 253 257 257 254 255 259 259 263 265 265 268 273 277 282 289 293 294 295 296 296 294 293 291 292 296 297 299 299 300 300 299 298 299 300 300 295 291 290 287 290 292
247 256 262 268 258 259 258 255 256 262 256 255 255 256 258 260 259 264 269 273 278 284 288 293 296 299 301 303 302 300 298 300 298 298 297 298 300 303 302 300 298 299 301 301 300 298 293 291 290
254 259 271 274 269 256 258 257 256 259 260 263 260 255 255 254 256 265 272 276 281 287 291 294 296 299 302 304 305 304 301 301 303 307 309 306 306 306 308 306 302 300 302 304 303 303 301 297 296
252 241 263 265 261 259 270 262 257 270 268 267 262 254 249 251 255 263 270 277 281 286 291 294 296 298 302 304 303 304 305 306 307 308 309 308 310 310 310 312 313 307 304 306 307 307 306 306 305
246 254 268 267 267 271 276 265 262 267 263 263 262 246 246 253 259 262 269 276 281 286 290 294 296 297 300 302 304 308 309 308 309 309 310 310 309 310 313 314 314 315 314 312 312 312 311 310 308
255 258 278 284 289 283 279 275 268 265 263 256 252 246 250 254 258 260 266 276 284 289 291 294 297 302 303 304 308 311 310 309 309 312 314 313 314 315 316 317 316 315 315 316 316 316 315 316 315
263 261 265 275 280 279 283 274 262 262 259 252 246 247 251 255 259 263 269 278 288 294 297 299 301 302 305 308 311 310 311 315 315 317 316 319 323 322 321 321 321 320 320 321 322 321 322 320 322
263 262 270 277 281 282 281 278 272 257 259 251 247 250 251 252 260 265 276 283 291 298 301 304 304 305 305 306 309 311 313 316 319 320 326 328 328 329 330 329 328 326 326 327 328 329 328 329 332
263 271 236 276 282 282 281 271 282 268 258 252 251 252 255 257 262 269 278 286 291 296 300 302 304 303 304 306 310 313 315 318 321 325 327 329 328 332 332 334 334 335 335 337 338 339 339 339 339